SCP
0 0 0 0 0 0 0 0 0 0 0 0 0 0 0 0 0 0 0 0 0 0
0 0 0 0 0 0 0 0 0 0 0 0 0 0 0 0 0 0 0 0 0 0
0 0 0 0 0 0 0 0 0 0 0 0 0 0 0 0 0 0 0 0 0 0
0 0 0 0 0 0 0 0 0 0 0 0 0 0 0 0 0 0 0 0 0 0
0 0 0 0 0 0 0 0 0 0 0 0 0 0 0 0 0 0 0 0 0 0
0 0 0 0 0 0 0 0 0 0 0 0 0 0 0 0 0 0 0 0 0 0
0 0 0 0 0 0 0 0 0 0 0 0 0 0 0 0 0 0 0 0 0 0
0 0 0 0 0 0 0 0 0 0 0 0 0 0 0 0 0 0 0 0 0 0
0 0 0 0 0 0 0 0 0 0 0 0 0 0 0 0 0 0 0 0 0 0
0 0 0 0 0 0 0 0 0 0 0 0 0 0 0 0 0 0 0 0 0 0
0 0 0 0 0 0 0 0 0 0 0 0 0 0 0 0 0 0 0 0 0 0
0 0 0 0 0 0 0 0 0 0 0 0 0 0 0 0 0 0 0 0 0 0
0 0 0 0 0 0 0 0 0 0 0 0 0 0 0 0 0 0 0 0 0 0
0 0 0 0 0 0 0 0 0 0 0 0 0 0 0 0 0 0 0 0 0 0
Wind_Speed_500mb
80 84 87 85 79 75 70 64 60 54 49 47 46 49 52 53 55 58 60 61 63 65
80 87 90 88 82 77 72 67 60 54 50 48 49 51 53 53 56 58 61 62 63 64
79 85 90 89 86 80 74 67 60 56 52 49 49 52 52 53 54 58 60 61 64 65
82 84 91 92 87 80 73 68 62 54 51 50 51 50 52 54 54 58 59 61 66 68
87 86 90 91 87 78 72 65 57 53 52 51 50 51 52 52 55 58 61 63 65 69
93 91 92 90 85 78 70 63 58 55 52 49 48 49 51 53 57 60 62 63 69 74
98 94 89 84 81 75 69 64 60 54 51 48 46 49 50 53 59 60 63 68 73 77
96 91 82 80 81 76 69 64 59 54 50 46 46 48 46 52 57 60 65 71 75 77
94 90 81 81 83 78 72 65 59 52 48 45 46 42 45 50 56 61 67 73 74 73
95 89 81 82 84 79 71 64 56 51 45 43 41 39 45 50 54 59 65 67 71 76
93 86 82 85 86 80 70 59 51 46 43 39 38 39 46 50 52 57 60 64 70 76
90 84 83 90 86 75 66 56 50 47 41 38 34 40 43 44 47 53 60 67 69 74
89 85 87 89 82 74 65 55 52 44 41 35 31 34 37 38 40 52 63 67 77 79
86 84 84 87 82 71 63 57 47 46 37 31 28 29 30 27 34 47 58 73 79 75
Wind_Direction_500mb
238 237 236 237 237 238 240 242 247 254 261 266 272 279 285 292 297 300 302 301 297 293
238 239 237 235 235 237 238 240 246 252 258 264 271 278 284 291 300 301 300 298 296 294
240 240 238 236 234 235 236 238 243 248 255 262 270 277 286 294 296 296 296 297 295 294
241 240 238 236 234 233 233 235 239 246 254 261 269 277 286 291 292 293 296 296 296 297
240 241 237 234 232 231 231 234 239 247 255 264 272 279 286 289 294 295 296 296 297 300
237 240 238 233 229 228 228 232 239 246 255 265 273 282 287 293 294 294 295 299 300 303
237 239 237 233 227 226 227 232 239 248 256 261 272 281 288 292 294 296 301 301 302 304
236 238 235 230 224 223 226 232 239 245 253 262 272 281 289 292 294 298 300 303 306 307
234 235 232 226 221 221 224 230 238 245 253 261 273 285 293 293 296 300 302 306 310 311
233 233 230 224 218 220 224 230 236 244 252 263 276 288 290 293 297 300 305 311 315 319
232 229 226 218 215 217 222 229 237 246 255 267 278 285 289 297 299 304 310 317 322 320
229 225 221 214 212 215 221 228 235 243 254 266 277 285 294 296 303 312 318 321 321 318
224 221 217 211 211 214 218 223 234 242 252 262 273 285 290 303 311 315 319 321 316 318
222 217 210 208 209 213 217 222 228 238 245 257 270 281 297 306 312 316 319 311 317 326
Wind_Speed_850mb
80 84 87 85 79 75 70 64 60 54 49 47 46 49 52 53 55 58 60 61 63 65
80 87 90 88 82 77 72 67 60 54 50 48 49 51 53 53 56 58 61 62 63 64
79 85 90 89 86 80 74 67 60 56 52 49 49 52 52 53 54 58 60 61 64 65
82 84 91 92 87 80 73 68 62 54 51 50 51 50 52 54 54 58 59 61 66 68
87 86 90 91 87 78 72 65 57 53 52 51 50 51 52 52 55 58 61 63 65 69
93 91 92 90 85 78 70 63 58 55 52 49 48 49 51 53 57 60 62 63 69 74
98 94 89 84 81 75 69 64 60 54 51 48 46 49 50 53 59 60 63 68 73 77
96 91 82 80 81 76 69 64 59 54 50 46 46 48 46 52 57 60 65 71 75 77
94 90 81 81 83 78 72 65 59 52 48 45 46 42 45 50 56 61 67 73 74 73
95 89 81 82 84 79 71 64 56 51 45 43 41 39 45 50 54 59 65 67 71 76
93 86 82 85 86 80 70 59 51 46 43 39 38 39 46 50 52 57 60 64 70 76
90 84 83 90 86 75 66 56 50 47 41 38 34 40 43 44 47 53 60 67 69 74
89 85 87 89 82 74 65 55 52 44 41 35 31 34 37 38 40 52 63 67 77 79
86 84 84 87 82 71 63 57 47 46 37 31 28 29 30 27 34 47 58 73 79 75
Wind_Direction_850mb
238 237 236 237 237 238 240 242 247 254 261 266 272 279 285 292 297 300 302 301 297 293
238 239 237 235 235 237 238 240 246 252 258 264 271 278 284 291 300 301 300 298 296 294
240 240 238 236 234 235 236 238 243 248 255 262 270 277 286 294 296 296 296 297 295 294
241 240 238 236 234 233 233 235 239 246 254 261 269 277 286 291 292 293 296 296 296 297
240 241 237 234 232 231 231 234 239 247 255 264 272 279 286 289 294 295 296 296 297 300
237 240 238 233 229 228 228 232 239 246 255 265 273 282 287 293 294 294 295 299 300 303
237 239 237 233 227 226 227 232 239 248 256 261 272 281 288 292 294 296 301 301 302 304
236 238 235 230 224 223 226 232 239 245 253 262 272 281 289 292 294 298 300 303 306 307
234 235 232 226 221 221 224 230 238 245 253 261 273 285 293 293 296 300 302 306 310 311
233 233 230 224 218 220 224 230 236 244 252 263 276 288 290 293 297 300 305 311 315 319
232 229 226 218 215 217 222 229 237 246 255 267 278 285 289 297 299 304 310 317 322 320
229 225 221 214 212 215 221 228 235 243 254 266 277 285 294 296 303 312 318 321 321 318
224 221 217 211 211 214 218 223 234 242 252 262 273 285 290 303 311 315 319 321 316 318
222 217 210 208 209 213 217 222 228 238 245 257 270 281 297 306 312 316 319 311 317 326